Weather in Belokurikha

Russia / Altai Krai     51°59′45″N   84°59′02″E
temp.,
°C
wind,
m/s
gust,
m/s
humid.,
%
clouds,
%
prec.,
mm/h
press.,
hPa
HPBL,
m
21 june, mon
mon2101:00+5sse34910 0.0 101368
04:00+5s46774 0.0 101282
07:00+8sse3666100 0.0 1008150
10:00+15ssw2550100 0.0 1006704
13:00+12nnw2279100 0.2 1009205
16:00+15w1370100 0.1 1008447
19:00+15ese236799 0.4 1008537
22:00+11ese2387100 0.1 100746
22 june, tue
tue2201:00+11sse1171100 0.1 100526
04:00+10ese1186100 0.6 100418
07:00+9w3793100 2.3 1007300
10:00+13wsw347151 0.1 1008841
13:00+14wsw3465100 0.4 1009923
16:00+15w695898 0.6 10101542
19:00+14w7136261 0.6 10111354
22:00+8wsw489066 0.0 1014306
23 june, wed
wed2301:00+9wsw41186100 0.3 1015838
04:00+8sw41093100 1.4 1015804
07:00+9sw2593100 1.8 1016208
10:00+10sw1289100 0.4 1017323
13:00+11w147961 0.8 1016615
16:00+15wnw3557100 0.3 10141441
19:00+14ene2281100 1.0 1013470
22:00+10se2290100 0.2 101216
24 june, thu
thu2401:00+9se3391100 0.2 100858
04:00+9sse3488100 0.0 100478
07:00+11s3781100 0.0 1002203
10:00+13wnw4673100 0.2 1004874
13:00+14wsw696131 0.4 10061359
16:00+16wsw81247100 0.1 10071930
19:00+13w81360100 0.1 10081013
22:00+11wsw71457100 0.0 10101075
25 june, fri
fri2501:00+10sw512605 0.0 1010953
04:00+10sw41161100 0.0 10111050
07:00+9sw51179100 0.1 1012905
10:00+11sw487573 0.1 1012973
13:00+15wsw575699 0.3 10111586
16:00+16wnw565846 0.4 10111558
19:00+14wnw357739 0.8 1011862
22:00+9wsw3497100 1.1 101487